Location: Buch
(50.1863°N, 11.0141°E)
Time: 15:52:04
(UTC+00:00)

Cosmos 1656 - Pass Details

Date: 18 January 2020
Orbit: 797 x 850 km, 71.1° (Epoch: 20 February)

Event Time Altitude Azimuth Distance (km) Brightness Sun altitude
Exits shadow 04:55:46 30° 233° (SW) 1,411 4.5 -20.5°
Maximum altitude 04:58:24 61° 303° (WNW) 909 3.6 -20.1°
Drops below altitude 10° 05:03:51 10° 24° (NNE) 2,404 6.2 -19.2°
Sets 05:06:19 0° 28° (NNE) 3,347 7.1 -18.8°
